FW4469 Weather Reports


Display with metric or nautical units.
time (UTC)temp
F
wind
direction
speed
MPH
gust
MPH
rain 1hr
in
rain 24hr
in
rain mn
in
humidity
%
barometer
mb
20260831044003 50 320 4.0 7.0 0.00 0.34 0.08 99 1005.5
20260831043008 50 322 4.0 7.0 0.00 0.34 0.08 99 1005.5
20260831042218 50 325 3.0 7.0 0.00 0.34 0.08 99 1005.8
20260831041003 50 321 4.0 9.0 0.00 0.34 0.08 99 1005.5
20260831040003 50 315 3.0 8.0 0.00 0.34 0.08 99 1005.5
20260831035003 50 316 3.0 7.0 0.00 0.34 0.08 99 1005.4
20260831034003 50 321 3.0 6.0 0.00 0.34 0.08 99 1005.2
20260831033003 50 320 3.0 7.0 0.00 0.34 0.08 99 1005.2
20260831032008 50 314 3.0 6.0 0.00 0.34 0.08 99 1005.3
20260831031003 51 315 3.0 6.0 0.00 0.34 0.08 99 1005.3
20260831030003 51 315 3.0 7.0 0.00 0.34 0.08 99 1005.3
20260831025003 51 317 3.0 7.0 0.00 0.34 0.08 99 1005.2
20260831024218 51 317 3.0 6.0 0.00 0.34 0.08 99 1005.2
20260831023004 51 312 3.0 9.0 0.00 0.34 0.08 99 1005.0
20260831022003 51 317 4.0 8.0 0.00 0.34 0.08 99 1004.9
20260831021003 51 320 3.0 8.0 0.00 0.34 0.08 99 1004.9
20260831020003 51 314 3.0 6.0 0.00 0.34 0.08 99 1004.7
20260831015003 51 309 3.0 7.0 0.00 0.34 0.08 99 1004.7
20260831014003 52 316 3.0 7.0 0.00 0.34 0.08 99 1004.5
20260831013003 52 319 3.0 6.0 0.00 0.34 0.08 99 1004.6
20260831012217 52 321 2.0 6.0 0.00 0.34 0.08 99 1004.4
20260831011008 52 317 3.0 7.0 0.01 0.34 0.08 99 1004.4
20260831010010 52 311 3.0 7.0 0.01 0.34 0.08 99 1004.3
20260831005008 52 314 3.0 7.0 0.02 0.34 0.08 99 1004.3
20260831001004 52 322 3.0 8.0 0.06 0.33 0.07 98 1003.9
20260831000003 52 316 3.0 11.0 0.07 0.33 0.07 98 1003.7
20260830235223 52 328 3.0 11.0 0.09 0.32 0.06 98 1003.9
20260830234438 52 306 2.0 6.0 0.10 0.30 0.04 98 1004.0
20260830233008 52 335 3.0 8.0 0.11 0.28 0.02 98 1004.2
20260830232223 52 325 4.0 10.0 0.12 0.28 0.02 98 1004.1
20260830231003 52 313 2.0 5.0 0.12 0.28 0.02 97 1004.0
20260830230008 52 314 2.0 4.0 0.11 0.26 0.00 97 1003.7
20260830225003 53 318 2.0 3.0 0.06 0.22 0.22 97 1004.2
20260830224223 53 320 2.0 3.0 0.04 0.20 0.20 96 1004.0
20260830223222 53 319 3.0 6.0 0.02 0.17 0.18 96 1004.0
20260830222003 53 332 3.0 8.0 0.00 0.16 0.16 95 1004.1
20260830221222 53 329 3.0 6.0 0.00 0.16 0.16 96 1004.1
20260830220222 53 331 3.0 6.0 0.00 0.16 0.16 97 1004.2
20260830215013 54 327 4.0 9.0 0.00 0.16 0.16 97 1004.2
20260830214003 56 327 3.0 8.0 0.00 0.16 0.16 99 1004.3
20260830213009 56 331 3.0 8.0 0.00 0.16 0.16 99 1004.4
20260830212008 56 324 3.0 7.0 0.00 0.16 0.16 99 1004.1
20260830211218 56 329 3.0 7.0 0.00 0.16 0.16 99 1004.1
20260830210010 57 328 3.0 9.0 0.00 0.16 0.16 98 1003.8
20260830205222 56 327 3.0 9.0 0.00 0.17 0.16 98 1003.8
20260830204003 57 332 3.0 9.0 0.00 0.17 0.16 98 1004.0
20260830203222 57 328 3.0 8.0 0.00 0.17 0.16 98 1003.8
20260830202008 57 324 3.0 7.0 0.00 0.17 0.16 98 1004.0
20260830201008 57 317 2.0 8.0 0.00 0.17 0.16 97 1004.1
20260830200003 57 316 2.0 6.0 0.00 0.17 0.16 97 1004.1
20260830195008 57 310 3.0 9.0 0.00 0.17 0.16 97 1003.9
20260830194013 57 307 2.0 6.0 0.05 0.17 0.16 97 1004.3
20260830193008 57 314 2.0 5.0 0.07 0.17 0.16 97 1004.5
20260830192009 57 306 2.0 5.0 0.07 0.17 0.16 96 1004.4
20260830191008 57 314 3.0 4.0 0.07 0.17 0.16 96 1004.5
20260830190008 58 314 3.0 6.0 0.07 0.17 0.16 95 1004.4
20260830185004 58 312 3.0 4.0 0.07 0.17 0.15 95 1004.6
20260830184008 58 311 2.0 6.0 0.03 0.13 0.11 94 1004.9
20260830183008 59 311 3.0 5.0 0.00 0.10 0.08 93 1004.8
20260830182008 59 304 2.0 4.0 0.00 0.10 0.08 93 1004.9
20260830181009 59 309 3.0 5.0 0.00 0.10 0.08 94 1005.0
20260830180008 59 309 3.0 5.0 0.00 0.10 0.08 95 1005.1
20260830175008 59 312 2.0 5.0 0.00 0.10 0.08 96 1005.1
20260830174008 58 304 2.0 5.0 0.00 0.10 0.08 95 1005.1
20260830173008 58 312 3.0 8.0 0.00 0.10 0.08 96 1005.5
20260830172004 58 317 3.0 5.0 0.00 0.10 0.08 96 1005.5
20260830171008 58 316 3.0 5.0 0.00 0.10 0.08 96 1005.7
20260830170008 58 317 2.0 5.0 0.01 0.10 0.08 96 1005.5
20260830165004 58 320 3.0 6.0 0.06 0.10 0.08 96 1005.3
20260830164008 58 316 3.0 7.0 0.06 0.10 0.08 95 1005.3
20260830163009 57 316 2.0 7.0 0.06 0.10 0.08 94 1005.9
20260830162008 58 319 3.0 7.0 0.06 0.10 0.08 93 1006.1
20260830161008 59 320 2.0 7.0 0.06 0.10 0.08 91 1006.0
20260830160008 61 310 3.0 6.0 0.06 0.09 0.07 88 1005.8
20260830155008 62 301 3.0 6.0 0.00 0.04 0.02 86 1005.8
20260830154008 63 297 3.0 6.0 0.00 0.04 0.02 82 1005.9
20260830153008 64 295 3.0 8.0 0.00 0.04 0.02 79 1005.7
20260830152008 64 300 3.0 8.0 0.00 0.04 0.02 78 1005.5
20260830151008 64 306 3.0 7.0 0.00 0.04 0.02 77 1005.5
20260830150010 66 298 3.0 7.0 0.00 0.04 0.02 75 1005.9
20260830145217 66 299 4.0 9.0 0.00 0.04 0.02 75 1006.1
20260830144217 65 304 3.0 6.0 0.00 0.04 0.02 77 1006.2
20260830143008 65 306 4.0 9.0 0.00 0.04 0.02 75 1006.3
20260830142225 65 311 4.0 9.0 0.00 0.04 0.02 74 1006.5
20260830141003 66 308 4.0 7.0 0.00 0.04 0.02 75 1006.6
20260830140003 66 305 4.0 9.0 0.00 0.04 0.02 74 1006.5
20260830135217 66 301 4.0 8.0 0.00 0.04 0.02 72 1006.7
20260830134008 67 303 3.0 7.0 0.00 0.04 0.02 75 1006.7
20260830133008 69 299 3.0 7.0 0.00 0.04 0.02 70 1006.6
20260830132004 66 297 3.0 6.0 0.00 0.04 0.02 77 1006.8
20260830131223 67 305 3.0 6.0 0.00 0.04 0.02 77 1006.7
20260830130004 66 302 3.0 6.0 0.00 0.04 0.02 77 1006.9
20260830125217 65 304 3.0 6.0 0.00 0.04 0.02 82 1007.0
20260830124003 65 302 3.0 6.0 0.00 0.04 0.02 82 1007.0
20260830123008 64 306 3.0 6.0 0.00 0.04 0.02 85 1006.9
20260830122008 64 310 3.0 6.0 0.00 0.04 0.02 86 1007.2
20260830121011 64 314 4.0 7.0 0.00 0.04 0.02 84 1007.4
20260830120019 63 313 4.0 7.0 0.00 0.04 0.02 86 1007.4
20260830115222 64 309 4.0 7.0 0.00 0.04 0.02 86 1007.6
20260830114222 65 307 3.0 7.0 0.00 0.04 0.02 83 1007.7
20260830113009 65 306 3.0 8.0 0.00 0.05 0.02 84 1007.8
20260830112008 65 303 4.0 8.0 0.00 0.06 0.02 85 1007.7
20260830111003 65 307 4.0 10.0 0.00 0.07 0.02 86 1007.8
20260830110008 65 308 4.0 10.0 0.00 0.08 0.02 90 1008.0
20260830105008 64 311 4.0 8.0 0.01 0.09 0.02 91 1008.2
20260830104008 62 309 4.0 7.0 0.02 0.11 0.02 96 1008.3
20260830103222 61 318 4.0 9.0 0.02 0.11 0.02 99 1008.4
20260830102008 60 322 3.0 9.0 0.02 0.12 0.02 98 1008.4
20260830101222 60 317 3.0 9.0 0.02 0.13 0.02 98 1008.3
20260830100008 59 311 3.0 6.0 0.02 0.13 0.02 96 1008.7
20260830095003 59 312 3.0 6.0 0.01 0.13 0.01 95 1008.7
20260830094003 60 303 3.0 6.0 0.00 0.12 0.00 95 1008.6
20260830093003 60 309 3.0 6.0 0.00 0.13 0.00 97 1008.9
20260830092003 59 316 3.0 7.0 0.00 0.16 0.00 97 1009.0
20260830091009 59 321 4.0 7.0 0.00 0.19 0.00 99 1009.0
20260830090217 59 321 4.0 7.0 0.00 0.20 0.00 99 1008.7
20260830085008 59 321 4.0 7.0 0.00 0.20 0.00 99 1008.7
20260830084003 59 321 3.0 6.0 0.00 0.20 0.00 99 1008.6
20260830083223 58 323 3.0 7.0 0.00 0.21 0.00 99 1008.9
20260830082008 58 333 4.0 8.0 0.00 0.21 0.00 99 1008.9
20260830081006 57 331 4.0 8.0 0.00 0.21 0.00 99 1008.6
20260830080223 57 326 4.0 7.0 0.00 0.21 0.00 99 1008.6
20260830075008 56 328 3.0 6.0 0.00 0.22 0.00 99 1008.5
20260830074008 56 322 3.0 7.0 0.00 0.22 0.00 99 1008.7
20260830073008 56 328 4.0 7.0 0.00 0.23 0.00 99 1008.7
20260830072008 56 323 4.0 9.0 0.00 0.24 0.00 99 1008.9
20260830071008 55 328 3.0 7.0 0.00 0.25 0.00 99 1008.7
20260830070008 55 332 4.0 6.0 0.00 0.26 0.00 99 1009.0
20260830065009 54 329 3.0 7.0 0.00 0.28 0.00 99 1008.7
20260830064003 55 328 4.0 7.0 0.00 0.28 0.00 99 1008.5
20260830063003 55 326 4.0 8.0 0.00 0.28 0.00 99 1008.3
20260830062008 54 326 3.0 6.0 0.00 0.28 0.00 99 1008.3
20260830061003 54 322 3.0 5.0 0.00 0.28 0.00 99 1008.5
20260830060003 54 323 3.0 6.0 0.00 0.28 0.00 99 1008.4
20260830055008 54 322 3.0 6.0 0.00 0.28 0.00 99 1008.5
20260830054008 55 322 3.0 6.0 0.00 0.28 0.00 99 1008.2
20260830053005 55 314 3.0 6.0 0.00 0.28 0.00 99 1008.2
20260830052003 55 317 3.0 6.0 0.00 0.28 0.00 99 1008.2
20260830051218 55 320 3.0 6.0 0.00 0.28 0.00 99 1008.2
20260830050008 54 319 3.0 5.0 0.00 0.28 0.00 99 1008.1
20260830045222 54 317 3.0 5.0 0.00 0.28 0.00 99 1008.1